Terminal Aerodrome Forecast
Issued by NWS Louisville, KY

Home | Current Version | Previous Version | Text Only | Print | Product List | Glossary On
Versions: 1 2 3 4 5 6 7 8 9 10 11 12 13 14 15 16 17 18 19
000
FTUS43 KLMK 011700
TAFLEX
TAF
KLEX 011723Z 0118/0218 22014G24KT P6SM VCSH BKN050
     FM020000 19007KT P6SM SCT050
     FM021300 23011KT P6SM VCSH BKN040=

USA.gov is the U.S. government's official web portal to all federal, state and local government web resources and services.